Location: *
(50.8160°S, 176.0219°W)
Time: 23:24:53
(UTC+00:00)

SL-16 R/B - Pass Details

Date: 19 May 2026
Orbit: 838 x 849 km, 71.0° (Epoch: 11 June)

Event Time Altitude Azimuth Distance (km) Brightness Sun altitude
Exits shadow 17:07:16 21° 209° (SSW) 1,845 3.6 -20.5°
Drops below altitude 10° 17:11:04 10° 167° (SSE) 2,495 4.7 -19.9°
Sets 17:14:11 0° 151° (SSE) 3,433 5.6 -19.4°
